Wind_Speed
11 11 11 11 10 11 11 11 11 12 12 12 13 13 13 13 13 13 13 13 13 13 14 14 14 15 15 15 15 15 15 15 15 16 17 17 17 17 17 16 16 17 16 16 16 16 16 16 16 16 16 16 17 16 17 17 17 18 20 21 21 21 21 18 17 18 19 20 19 19 19 20 19 19 22 22 21 18 15 12 13 15 14 13 14 16 16 15
13 12 13 12 12 12 12 13 13 13 14 14 14 14 14 15 15 15 15 15 16 16 16 16 16 17 17 17 17 17 17 16 15 15 17 18 18 17 17 17 17 17 17 16 16 16 16 16 16 17 17 17 18 17 18 18 18 20 22 25 25 22 22 21 19 20 21 22 23 22 21 21 21 22 24 24 23 21 18 14 13 16 14 13 16 18 18 16
14 14 14 14 14 14 14 14 15 15 15 15 16 16 16 16 16 16 16 17 17 17 18 18 18 19 19 19 20 20 19 18 16 17 19 19 18 17 16 16 16 16 16 15 16 16 16 16 16 17 17 18 18 18 18 18 20 22 24 27 27 23 24 23 21 22 22 24 25 24 24 24 22 24 25 26 25 24 21 15 15 18 16 16 18 20 20 18
16 16 16 16 16 16 16 16 17 17 17 17 17 17 17 17 17 17 17 18 18 18 19 19 20 20 20 21 21 22 22 21 19 18 18 17 16 16 15 16 17 18 17 17 17 17 17 17 18 18 18 20 20 19 20 19 21 24 26 27 27 25 26 25 22 23 24 25 26 26 27 27 26 26 27 28 29 27 22 17 17 19 20 21 21 20 21 20
18 18 18 18 18 18 18 18 18 18 18 18 18 18 18 18 18 18 18 18 18 19 19 20 20 21 21 21 22 23 23 21 17 17 17 17 18 19 19 19 20 20 20 20 20 20 20 20 20 20 21 22 21 22 22 21 22 27 29 28 27 27 28 27 24 25 25 26 26 26 27 28 29 29 29 29 31 28 22 19 19 21 23 24 24 23 22 22
20 20 20 20 20 20 20 20 20 19 19 19 19 19 19 19 19 19 19 19 20 19 20 21 21 22 22 22 23 24 23 18 16 20 21 21 21 21 21 21 21 21 21 20 20 21 21 21 21 22 23 23 23 23 23 23 24 28 31 29 27 28 29 27 26 26 26 26 27 26 27 29 29 29 31 33 33 27 23 22 22 24 25 25 25 25 23 23
21 21 21 21 21 21 21 21 21 21 21 21 21 21 21 21 21 21 21 21 21 21 22 22 22 23 23 24 24 25 26 19 17 22 23 22 22 21 21 21 21 21 20 20 20 21 21 21 22 22 23 24 25 25 24 24 25 28 31 30 28 29 29 28 29 30 28 29 28 28 29 29 29 30 33 36 33 27 24 23 23 25 26 26 26 25 25 24
22 22 22 22 22 22 22 22 22 22 22 22 22 22 22 23 22 23 23 23 23 23 23 23 24 24 24 25 25 27 27 19 17 20 21 20 20 20 20 21 21 21 21 21 21 22 22 23 23 23 24 25 26 27 26 26 28 31 31 30 30 31 30 30 32 33 32 31 30 31 32 29 30 32 36 38 31 26 25 24 24 27 28 27 27 26 26 26
24 24 24 24 24 23 23 23 23 24 24 24 24 24 24 24 24 24 24 24 24 24 24 24 24 24 24 24 25 29 24 16 16 18 18 20 20 20 21 22 23 23 23 23 23 24 24 24 24 24 25 26 28 29 28 28 31 32 31 32 34 34 33 33 34 34 34 33 34 35 34 31 31 34 37 35 29 26 26 26 26 27 29 28 27 26 26 27
25 25 25 25 25 25 25 25 25 25 25 25 25 24 24 24 24 24 24 25 24 24 24 24 24 24 24 24 26 28 21 16 18 19 19 20 21 22 23 23 24 24 24 25 25 25 24 25 25 25 26 28 29 29 29 30 32 33 33 35 35 35 35 35 36 36 36 35 36 37 35 32 31 34 36 31 29 28 28 28 26 27 28 28 28 27 27 28
26 26 26 26 26 26 26 26 26 26 25 25 25 25 25 25 25 25 25 25 25 25 25 25 25 25 25 25 27 27 21 21 22 21 21 21 21 23 23 24 25 25 26 26 26 26 26 26 27 27 27 28 28 29 30 31 32 33 34 36 36 37 37 37 37 36 37 37 36 36 35 33 34 36 35 30 30 31 30 30 28 28 29 28 28 28 28 29
27 27 27 27 27 27 27 27 27 27 27 27 27 26 26 26 26 26 26 27 26 27 27 26 27 26 27 27 26 25 25 26 26 24 23 23 23 24 24 26 26 26 27 27 27 28 28 28 28 27 28 29 29 29 31 32 33 33 34 36 37 38 38 37 37 34 34 35 35 36 35 36 37 37 34 31 31 32 32 32 30 29 30 30 30 30 30 30
27 27 27 27 28 28 28 28 28 28 28 28 28 28 27 27 27 27 27 27 27 27 27 27 27 27 28 28 25 25 27 28 28 27 25 25 25 25 26 27 28 29 29 29 29 29 29 30 29 29 30 30 30 29 31 34 34 33 35 37 37 38 39 36 34 33 32 34 34 34 33 35 39 36 33 33 33 33 34 33 32 32 32 32 32 32 31 30
27 27 27 27 27 28 28 28 28 28 28 28 28 28 27 27 27 27 27 28 28 28 28 28 28 28 30 28 26 27 28 28 29 28 26 25 25 25 25 26 28 28 29 29 29 29 30 30 29 29 28 27 28 28 31 34 34 33 35 36 36 36 38 35 32 32 33 35 36 36 37 38 41 37 33 34 35 35 35 34 34 34 35 35 34 33 32 30
28 28 28 28 28 28 28 28 29 29 29 29 29 29 29 29 29 29 29 29 29 29 29 29 29 29 31 29 27 28 28 28 27 26 25 25 24 24 24 25 26 27 27 28 28 28 28 29 29 29 27 27 27 29 33 34 33 33 33 35 36 37 38 36 32 32 35 39 39 39 38 36 39 39 34 34 35 36 37 36 35 35 35 35 34 33 32 30
30 29 29 29 29 29 30 30 30 30 30 30 30 30 30 30 30 30 30 30 30 29 29 29 29 29 30 28 27 27 26 26 26 25 25 25 24 24 22 23 24 25 26 26 27 28 29 30 30 30 28 27 28 32 33 32 33 34 33 35 36 36 38 38 37 35 35 40 41 41 42 40 42 43 37 35 36 37 39 38 35 34 35 35 34 33 32 30
30 30 29 29 29 30 30 30 30 30 31 30 30 31 31 31 31 31 31 30 30 30 29 29 29 30 30 29 28 27 26 26 25 24 23 22 22 21 22 23 24 25 26 27 28 29 30 30 30 29 28 27 29 31 27 24 29 33 33 34 34 34 37 39 41 38 36 41 42 45 50 51 49 45 41 38 37 39 41 40 38 36 36 34 33 32 31 31
28 28 28 28 28 28 28 29 29 29 30 30 30 30 30 31 31 31 30 30 30 30 30 30 30 30 29 27 25 24 24 23 23 22 22 23 25 27 28 29 28 29 29 30 31 31 31 32 31 29 28 30 31 31 28 26 30 33 31 33 34 36 40 41 42 40 38 41 43 46 51 53 51 48 44 41 39 41 42 41 39 37 35 35 33 31 29 29
27 27 27 26 27 27 27 27 27 28 28 29 29 29 30 30 30 30 30 30 30 29 29 29 29 29 27 26 25 25 26 26 27 27 28 29 31 32 32 32 31 31 31 32 33 32 32 32 32 30 31 34 32 31 32 31 32 32 33 36 37 40 43 41 41 39 37 42 45 46 50 51 49 49 47 44 40 39 40 39 38 37 35 32 28 25 24 23
27 27 26 26 26 26 26 26 26 27 27 28 28 28 29 30 30 30 30 30 29 29 29 29 30 31 30 29 29 29 30 30 29 29 29 30 32 33 34 34 34 34 34 34 34 33 34 34 34 34 34 33 31 30 31 31 32 33 35 38 39 42 42 40 39 38 37 44 47 46 49 50 49 49 47 43 40 39 39 36 32 29 26 24 22 21 21 19
27 27 26 26 26 26 25 26 26 26 26 27 27 28 29 29 30 31 31 30 29 29 30 29 31 32 30 29 30 29 30 30 29 29 30 31 32 34 36 36 36 36 35 34 34 34 34 35 36 35 32 30 30 29 29 30 31 32 35 37 38 40 43 44 40 36 35 40 46 47 47 48 48 48 46 43 38 29 23 19 19 21 22 23 22 21 18 15
28 27 27 26 25 25 25 26 26 26 27 27 27 27 28 29 30 31 33 33 30 28 29 30 31 32 30 30 30 29 31 31 29 29 30 31 33 35 38 38 37 37 36 34 34 34 34 36 35 31 28 28 28 27 27 29 30 32 34 37 39 41 44 44 37 33 32 36 43 44 47 51 48 45 41 29 14 3 6 15 22 27 24 21 20 18 15 13
28 28 27 26 25 25 25 25 25 25 26 26 27 27 28 29 29 30 32 34 33 29 29 30 31 31 29 29 29 29 31 31 30 31 31 33 35 36 38 39 38 38 37 36 36 35 34 34 33 28 27 29 29 29 29 31 34 36 37 38 40 40 39 39 36 32 29 34 39 40 48 50 37 26 13 4 5 3 19 30 28 22 17 15 16 15 13 11
29 28 27 26 25 24 23 24 24 24 24 25 26 26 27 28 29 31 31 35 37 32 29 31 31 29 27 27 28 29 31 31 32 34 33 34 36 36 37 38 38 39 39 38 37 37 36 35 34 32 31 31 30 31 29 31 35 36 35 35 36 33 31 34 34 33 32 33 33 35 41 31 10 2 9 9 9 22 27 28 18 11 12 12 12 11 9 10
28 27 26 24 24 23 22 23 23 24 24 24 25 25 27 27 29 30 31 33 35 31 26 26 25 21 18 19 22 24 28 29 30 32 32 33 34 34 36 35 35 37 37 36 35 36 36 34 33 30 27 25 26 26 23 25 31 33 30 26 27 27 27 29 29 30 30 22 21 25 24 11 3 4 10 14 22 23 19 14 8 7 9 8 7 7 8 8
27 26 25 23 23 23 23 22 22 23 23 23 24 25 26 27 27 29 29 29 29 24 16 13 12 9 6 7 10 12 15 18 19 21 22 25 26 27 29 30 31 32 32 31 31 31 30 27 25 23 20 17 17 19 17 18 25 30 26 22 24 26 27 28 26 26 22 15 21 24 14 14 17 17 21 23 22 20 14 4 5 7 10 9 4 7 7 7
28 27 25 24 23 23 22 21 22 23 23 24 25 25 25 25 25 25 23 19 16 11 5 4 5 5 1 3 2 2 4 6 7 8 10 12 15 17 19 21 21 22 23 23 23 23 22 21 20 19 18 17 17 19 18 16 21 28 26 23 23 25 26 27 26 25 25 27 31 21 9 17 25 19 20 20 16 14 8 3 7 9 12 9 5 5 7 8
30 28 26 24 23 23 24 23 22 23 24 25 25 25 24 23 23 21 16 8 5 3 2 6 7 5 3 7 8 9 8 7 6 7 9 10 12 12 13 14 14 16 17 18 20 20 20 21 22 22 22 23 24 22 18 15 20 26 25 23 23 24 25 26 26 26 28 30 20 5 2 11 20 19 16 13 11 7 2 9 12 11 9 5 3 4 8 9
30 29 27 26 25 26 27 25 24 25 25 24 23 24 24 23 22 18 10 5 4 3 4 8 6 6 7 6 9 12 11 11 10 9 10 10 11 12 13 14 14 17 17 17 21 21 20 22 23 22 23 23 21 19 18 16 19 22 23 24 24 25 26 26 27 27 26 22 12 8 9 12 16 15 5 7 8 2 9 14 12 6 0 3 6 10 11 12
29 28 28 28 27 27 27 25 23 24 23 20 20 21 21 20 18 12 7 7 5 4 6 9 10 12 12 12 13 14 14 13 11 9 9 9 10 11 13 14 16 18 18 20 24 24 25 27 26 26 25 23 21 20 20 19 19 21 22 24 25 25 26 24 24 22 17 14 14 18 20 15 11 6 2 1 2 13 17 12 11 16 8 11 15 16 15 16
27 26 26 25 24 22 21 18 16 17 16 15 16 17 16 17 14 8 6 6 8 9 9 8 8 10 12 12 11 11 12 10 9 10 12 13 15 16 17 17 18 20 23 25 27 28 30 30 30 31 28 26 26 25 25 24 23 23 23 24 21 17 15 13 12 9 7 8 9 12 13 15 13 3 9 10 12 15 16 8 14 21 10 15 18 17 17 18
25 24 24 22 20 18 17 14 12 13 14 14 15 15 15 15 14 14 11 8 8 7 5 4 3 3 4 5 6 7 9 10 11 14 17 19 21 22 23 23 23 22 21 24 27 32 36 35 34 33 32 32 30 27 26 25 22 20 22 21 12 6 6 4 3 2 7 10 10 10 7 13 22 19 12 9 8 12 17 17 23 23 13 12 14 18 22 28
28 26 24 22 19 17 15 14 14 15 15 15 15 15 17 13 10 13 12 8 5 4 4 5 7 13 16 17 17 16 16 18 19 20 22 24 26 29 29 30 29 24 23 27 30 32 33 34 34 30 28 26 24 23 22 21 19 19 21 20 10 3 1 3 4 3 8 10 10 13 11 12 20 21 17 16 15 17 24 27 27 21 16 15 18 28 36 38
30 27 24 22 20 18 17 16 17 17 16 17 17 17 19 16 12 12 12 13 14 14 16 19 22 25 24 23 22 22 22 23 24 25 26 26 27 29 28 28 26 24 25 28 28 25 22 24 27 24 21 22 21 19 20 22 23 24 25 22 16 13 7 5 5 4 5 7 9 9 6 9 13 10 8 10 11 15 19 20 21 22 25 28 32 36 37 33
30 27 25 25 24 23 22 21 21 20 18 19 20 21 24 23 19 19 20 21 23 23 24 25 24 25 26 27 27 25 22 20 20 21 22 22 24 26 27 27 25 24 24 22 20 20 20 25 30 26 23 26 26 24 24 24 21 22 23 19 19 22 20 15 12 12 10 8 9 11 13 23 30 28 29 28 27 28 25 25 29 30 31 31 27 24 22 22
30 29 29 29 28 26 25 24 23 22 22 21 22 27 34 32 27 26 25 23 21 21 22 22 23 25 25 24 22 17 14 16 17 19 21 22 24 27 27 26 23 22 22 22 21 20 20 27 32 28 24 26 27 27 27 25 21 17 17 21 24 26 25 21 13 14 14 8 11 18 22 34 39 38 38 27 16 17 20 24 26 21 17 15 13 13 15 18
32 33 33 31 28 26 27 26 24 23 24 24 26 34 39 37 35 34 33 31 29 27 25 22 22 22 19 17 18 15 14 16 16 17 20 20 19 20 21 20 21 21 20 22 26 25 25 30 35 33 31 30 29 29 28 28 28 23 22 27 26 20 21 19 7 4 8 6 11 19 23 29 26 18 14 7 4 6 10 13 15 13 12 14 16 19 20 20
38 38 35 32 29 27 27 27 26 26 25 26 33 38 40 40 40 39 37 36 34 31 29 27 25 25 25 24 25 23 20 17 15 16 19 20 18 18 18 17 17 16 15 19 24 25 25 28 33 35 34 29 27 28 28 28 28 28 29 30 24 15 13 14 9 4 7 6 6 13 21 25 25 24 20 15 16 18 17 17 17 18 23 24 23 23 22 22
38 37 35 33 31 30 29 29 28 27 27 32 37 40 42 44 43 41 39 38 34 30 30 31 29 28 29 30 29 27 24 21 20 19 19 18 18 17 16 15 16 16 17 19 23 26 26 24 25 30 32 26 22 26 29 30 30 30 31 31 30 26 19 15 15 11 9 9 8 10 13 17 29 42 40 32 33 30 24 24 25 27 29 27 25 25 28 32
36 36 36 36 35 33 30 28 27 29 32 38 41 41 43 43 42 41 39 36 34 31 30 31 30 29 30 31 30 28 25 24 25 24 22 21 22 22 22 22 24 24 23 22 24 25 26 23 21 27 33 30 28 32 35 34 33 31 32 33 32 32 29 23 22 25 19 9 7 9 8 14 30 40 37 33 35 32 28 27 27 27 28 29 31 34 36 37
35 36 37 36 33 32 29 28 30 33 36 39 40 40 41 41 41 42 39 36 34 31 29 29 29 29 30 29 29 28 26 27 28 27 27 28 27 26 24 21 21 21 22 25 26 25 25 25 25 28 32 35 37 39 37 34 32 31 32 34 34 34 33 21 15 28 32 19 11 11 6 12 27 34 33 34 35 33 33 33 34 35 34 34 34 33 34 35
31 31 32 31 30 30 29 30 33 34 35 38 39 39 38 38 38 38 38 36 33 30 28 28 29 30 30 30 30 30 30 32 32 31 32 33 31 28 26 25 25 26 28 30 32 33 33 33 32 33 38 43 44 42 38 34 32 31 30 32 32 32 36 28 14 19 27 24 23 20 12 15 31 39 39 39 37 36 37 37 38 39 36 33 32 32 34 36
28 28 28 28 28 27 27 29 31 33 35 37 37 36 35 35 35 35 34 32 29 28 28 28 29 30 31 31 30 29 30 30 31 31 30 29 29 27 26 26 27 27 28 29 30 32 30 26 25 29 34 39 39 38 40 40 38 36 35 36 35 33 37 35 25 21 21 19 22 18 8 10 21 30 33 34 35 36 35 34 33 33 34 35 36 37 38 39
25 26 27 27 26 27 29 31 32 33 34 34 33 33 33 33 33 34 32 28 27 27 28 28 28 27 27 27 27 28 27 25 24 25 25 25 26 27 26 26 27 27 27 26 25 25 23 19 17 16 16 19 22 23 24 26 28 29 28 31 34 35 36 33 31 29 22 21 25 19 10 11 17 21 25 27 31 32 31 32 34 35 37 37 38 39 42 44
24 24 25 26 26 27 30 32 32 32 31 30 30 31 31 31 32 32 30 28 27 27 28 28 28 27 27 27 28 30 29 28 26 26 29 31 30 30 30 29 29 30 29 29 27 25 24 24 24 18 10 9 11 12 13 16 20 20 21 23 23 23 23 23 25 22 16 19 26 21 17 22 25 23 24 27 32 36 37 39 41 40 39 40 42 47 50 51
24 24 24 25 25 27 29 29 29 30 29 28 28 29 30 30 30 30 28 28 28 27 28 28 28 28 29 29 30 30 30 30 28 28 31 33 31 30 32 32 31 30 30 31 30 29 28 31 32 30 26 24 26 28 29 30 29 28 31 34 32 28 26 27 26 25 23 23 25 26 26 27 27 26 29 33 36 37 39 42 44 44 45 48 51 53 54 53
23 24 24 24 23 24 27 28 28 29 29 28 28 29 31 31 30 29 28 29 30 29 29 28 27 26 27 27 27 26 28 28 27 29 32 33 32 31 30 30 30 28 29 29 29 30 30 32 36 37 36 36 39 39 37 36 34 32 34 38 40 39 39 39 39 40 38 28 24 35 40 35 35 40 43 45 45 43 43 45 47 49 52 54 54 53 53 52
24 24 24 25 24 23 24 26 27 28 29 29 29 30 30 30 30 28 28 28 28 28 25 24 23 23 22 23 23 22 24 25 26 29 30 30 31 30 28 28 28 29 30 31 31 31 30 32 38 38 36 37 40 39 35 33 31 29 30 33 37 39 40 44 43 40 36 29 28 39 43 41 43 47 48 49 48 46 46 47 48 51 52 54 53 51 50 48
26 26 25 26 27 27 26 25 25 25 27 29 30 29 29 30 29 28 27 28 28 27 25 22 22 23 22 23 24 24 24 23 24 28 30 30 32 32 32 32 32 34 35 34 34 31 27 30 32 29 29 32 34 34 32 29 27 29 32 34 37 41 44 46 45 40 39 40 42 45 48 50 51 49 48 48 46 45 45 46 46 48 49 50 50 48 47 45
27 27 26 26 28 28 28 28 27 26 27 29 31 31 30 30 30 28 29 29 29 28 28 26 26 27 29 29 31 32 32 31 32 34 35 34 33 33 34 34 33 34 32 31 29 23 21 25 25 22 25 28 31 35 33 30 31 34 37 38 42 47 48 47 48 48 48 50 51 50 49 51 51 49 48 45 43 42 41 41 42 43 43 44 45 45 45 44
27 27 27 27 27 27 28 29 29 29 29 30 31 32 31 32 32 32 32 32 32 31 32 32 32 34 34 35 35 36 35 33 31 30 29 29 28 27 27 27 28 28 28 27 24 21 21 26 29 29 28 31 36 38 35 36 37 38 42 47 49 50 49 48 48 48 47 49 49 46 46 47 47 46 44 40 38 38 37 37 38 38 38 39 40 40 41 42
26 26 25 25 26 27 28 28 28 30 31 30 30 31 31 32 33 33 32 32 32 32 32 33 33 33 34 34 35 35 33 31 30 29 29 30 30 30 30 29 29 31 34 34 33 33 33 34 36 33 27 31 39 39 37 35 28 31 46 53 49 47 47 47 46 44 44 46 45 43 43 44 41 38 37 36 34 34 34 34 34 34 36 37 37 39 41 42
Wind_Direction
261 263 265 268 272 275 279 281 283 285 286 288 288 289 291 292 294 295 296 297 297 297 298 297 297 297 297 297 297 296 296 296 297 298 297 294 293 293 292 293 293 294 295 296 296 296 297 296 295 295 294 294 293 294 294 294 295 293 291 289 287 292 297 299 300 298 297 298 297 295 294 293 296 296 294 296 298 301 301 304 306 304 310 313 308 308 311 312
263 264 266 268 270 274 276 279 282 283 284 285 286 287 288 288 289 290 292 293 294 296 296 297 298 298 298 299 299 298 298 298 300 301 298 297 297 296 295 295 294 293 293 293 293 293 293 292 292 291 292 291 289 290 289 289 290 287 287 285 286 294 297 297 299 299 297 296 294 294 293 293 296 296 294 295 298 300 300 307 304 296 303 308 303 302 304 307
267 268 269 271 272 274 276 277 279 280 282 283 284 285 286 287 287 288 289 289 291 292 293 293 294 294 295 295 296 296 295 296 299 299 297 297 298 299 300 300 300 298 297 296 295 295 293 292 292 292 292 290 289 290 288 289 288 285 284 283 288 296 295 295 299 298 294 292 292 292 293 294 295 294 293 295 297 296 298 307 303 294 298 298 297 298 299 301
270 272 273 274 275 276 277 278 279 279 280 281 282 283 284 285 286 287 288 288 289 290 291 291 291 291 291 291 291 291 292 294 296 296 295 297 300 301 301 301 301 299 298 296 295 295 293 292 292 292 291 290 290 290 288 290 288 285 283 285 291 296 294 296 299 295 291 290 290 291 293 294 293 291 292 294 293 292 297 305 301 295 295 293 293 294 294 296
270 271 273 274 276 277 278 279 279 280 280 280 280 281 282 283 284 285 286 287 288 289 290 290 290 290 289 289 289 289 291 295 297 294 291 293 295 294 295 295 294 294 293 292 293 292 290 290 289 289 289 288 289 288 289 289 287 286 286 288 293 295 294 296 296 292 290 290 290 292 293 292 292 292 293 291 288 290 297 302 299 293 290 290 290 288 289 292
268 269 271 273 274 275 277 278 278 279 279 279 280 280 281 281 282 283 284 285 285 286 287 287 288 288 289 288 288 288 287 291 296 291 288 289 289 289 290 291 291 290 290 291 292 290 290 289 288 289 288 287 287 287 288 288 286 286 287 290 293 294 293 295 294 290 290 290 292 293 292 291 292 294 292 287 284 289 295 297 293 287 286 285 284 284 286 288
266 268 269 270 272 273 274 275 276 277 277 278 278 279 280 280 281 281 282 282 282 283 283 285 285 286 288 287 287 286 283 288 294 289 288 288 287 289 289 290 289 288 289 290 289 289 289 288 289 288 287 286 286 286 286 286 285 284 287 291 293 290 290 293 292 290 292 292 293 293 291 292 294 294 289 283 284 291 295 294 290 285 284 282 281 282 283 283
266 267 268 269 270 271 272 273 274 275 276 277 278 278 279 279 280 280 281 281 282 282 282 283 283 285 287 286 287 283 282 292 293 284 286 287 286 288 289 288 288 287 288 288 287 286 285 286 286 285 284 284 285 285 286 286 284 283 287 291 290 288 290 291 290 291 293 294 295 293 291 294 295 292 286 283 288 297 297 292 287 283 282 281 282 283 282 281
265 266 267 268 269 270 270 271 272 273 274 275 276 277 278 279 280 281 281 281 281 282 282 283 283 284 284 285 285 281 285 298 289 281 282 283 285 287 286 286 285 286 286 285 284 283 283 283 281 280 280 281 282 284 285 284 283 286 288 288 287 288 290 290 290 291 293 295 295 292 292 294 292 289 284 284 294 301 297 289 284 282 281 282 283 282 282 280
263 265 266 267 268 269 269 270 271 272 272 273 274 275 275 277 278 279 279 280 280 280 281 282 282 283 282 284 281 279 288 295 283 281 281 281 284 284 284 283 283 284 283 282 282 281 280 278 278 279 279 280 282 283 285 284 284 287 287 286 287 289 290 290 291 293 295 296 295 292 293 293 288 284 282 289 300 299 293 288 284 283 282 282 283 280 279 277
263 264 264 265 267 267 268 269 269 270 270 271 271 272 272 273 274 275 276 277 277 278 278 279 280 281 281 281 278 282 291 288 281 280 279 280 280 279 280 280 280 280 279 279 279 278 277 277 278 278 278 280 282 284 286 285 285 285 285 286 288 289 290 291 292 295 297 297 297 296 293 290 285 282 284 295 300 296 292 289 287 285 284 282 281 279 278 277
264 264 265 265 266 267 268 269 269 270 270 270 270 271 271 272 273 273 274 274 275 276 276 277 277 278 278 277 278 285 289 285 283 283 281 280 278 276 277 276 277 277 276 277 277 277 277 277 277 276 277 279 281 285 286 286 284 284 286 287 288 290 290 292 294 298 299 298 299 298 292 287 284 284 291 298 297 295 293 290 289 287 285 283 280 279 279 279
265 266 266 267 267 268 269 270 270 271 271 272 272 272 273 273 273 273 274 274 275 275 275 276 275 276 275 276 280 284 283 283 284 285 284 282 279 277 275 274 274 274 275 275 276 277 277 277 276 275 276 278 281 284 284 284 282 284 287 287 289 291 292 296 301 302 301 297 298 296 288 285 287 289 295 298 297 296 293 291 291 287 285 283 283 282 281 282
265 266 267 268 269 269 270 271 272 272 273 274 274 275 275 275 275 275 275 275 275 275 275 274 274 274 273 276 280 280 280 281 283 284 285 282 280 278 276 274 274 274 275 275 276 277 277 277 275 275 276 279 283 285 283 281 281 286 288 287 290 288 291 302 305 304 303 297 297 296 286 286 292 293 296 298 298 297 294 291 289 286 285 285 285 285 286 286
265 266 267 268 269 270 271 272 273 274 275 275 276 276 277 276 276 276 276 275 275 275 275 274 274 274 274 276 279 278 280 280 281 282 282 281 281 278 276 274 273 273 274 275 276 276 276 276 275 275 278 280 284 283 280 279 282 287 286 285 289 289 294 303 300 297 299 296 297 296 290 291 295 297 298 299 298 297 295 291 288 286 286 286 287 289 290 290
265 266 267 268 269 270 271 272 273 274 275 276 276 277 277 277 277 277 277 276 276 276 276 275 275 274 275 277 279 279 279 278 279 279 279 280 280 278 276 273 272 272 273 274 275 276 275 276 276 276 277 280 281 280 278 279 282 287 286 284 289 293 298 301 296 293 295 295 297 297 293 292 295 298 300 298 297 295 293 291 290 289 288 289 292 293 293 293
264 265 267 268 268 269 270 271 272 273 274 274 275 276 276 276 276 276 276 276 276 276 276 275 276 275 276 279 281 279 278 277 277 277 277 278 277 277 276 275 274 273 272 273 274 275 275 276 277 276 277 278 278 276 273 273 281 289 292 289 292 295 296 297 296 295 295 295 297 296 293 292 295 299 299 296 295 293 292 292 293 292 292 294 294 294 294 292
264 265 266 267 268 269 270 271 272 274 274 275 275 276 276 276 276 276 276 275 275 275 275 275 276 275 275 279 281 278 277 277 275 276 277 277 277 277 276 276 275 273 273 273 273 273 274 276 275 273 275 275 274 273 269 274 288 291 290 290 292 293 292 293 295 297 299 297 295 294 292 293 297 299 297 295 293 292 293 294 295 296 296 295 294 293 292 289
267 267 268 269 270 271 272 274 275 276 277 277 277 277 277 277 277 277 276 275 275 275 275 275 274 272 273 277 278 276 276 275 275 275 276 276 276 276 276 275 274 272 272 272 273 273 274 273 269 267 272 276 279 282 281 287 293 289 286 287 288 289 290 291 295 300 302 298 294 291 291 294 297 298 296 296 296 295 295 296 297 297 296 295 295 294 290 287
269 270 270 271 272 273 275 276 276 276 277 278 279 279 279 279 279 277 276 275 275 275 274 274 275 274 275 277 276 275 275 275 275 275 275 275 275 275 275 274 273 272 271 272 273 274 274 270 266 268 275 281 285 287 287 287 287 285 287 287 287 287 288 292 298 301 302 297 293 293 293 294 295 294 295 298 298 297 297 298 296 296 299 303 301 294 289 288
270 271 271 271 272 274 275 276 276 277 277 277 278 279 279 279 280 279 277 275 274 275 274 275 275 275 277 278 276 276 276 274 274 274 274 273 274 274 273 273 273 272 272 273 273 272 270 266 267 275 281 285 284 283 283 283 284 285 286 286 285 286 290 296 299 300 301 295 293 297 296 294 294 293 297 301 301 302 300 295 297 304 309 308 299 289 288 287
270 271 271 272 273 274 275 275 276 276 277 278 278 278 278 278 280 280 281 278 274 273 275 276 275 276 278 277 276 276 274 272 271 270 270 270 269 269 271 272 272 273 274 273 272 271 269 268 274 283 284 282 280 281 282 282 283 283 283 284 283 286 294 297 299 303 302 295 296 299 297 296 297 299 302 299 296 319 300 300 309 313 310 300 292 286 283 275
268 270 271 271 272 273 274 273 273 275 276 277 277 277 277 278 279 280 282 283 281 278 278 279 278 278 278 275 274 273 270 269 268 264 262 262 263 264 266 269 271 273 274 274 274 273 272 275 282 286 283 281 281 281 280 280 281 280 281 281 281 289 294 293 298 305 300 296 299 299 299 303 307 308 297 170 122 331 308 315 318 312 301 286 284 284 274 256
265 267 268 269 269 270 271 271 272 274 275 276 276 277 278 280 281 282 284 287 287 287 286 285 283 281 277 272 269 265 263 263 261 259 259 258 260 262 264 268 271 273 274 276 278 277 276 280 285 285 283 282 281 279 279 280 280 281 281 280 284 294 297 294 299 302 300 300 299 302 306 309 328 45 157 150 319 313 317 324 322 301 286 276 278 270 250 244
264 264 264 265 265 265 267 269 272 274 275 276 276 278 280 281 283 285 289 291 293 297 295 289 287 284 276 266 261 258 258 259 259 260 261 261 262 264 265 268 270 273 275 277 278 278 279 282 286 286 284 283 280 279 282 281 279 279 283 287 293 299 299 298 301 303 305 303 299 312 319 307 191 236 266 291 310 319 333 331 304 283 260 247 258 237 221 237
262 261 261 262 263 264 265 268 272 273 275 276 277 279 279 282 285 288 294 297 299 304 300 284 278 275 277 265 251 255 261 261 262 261 262 263 264 266 267 268 270 272 275 278 278 279 283 288 290 287 287 284 276 281 290 287 281 279 285 295 296 296 297 298 300 300 298 290 294 306 308 284 281 284 293 307 316 326 341 323 251 249 213 197 200 209 218 236
264 262 261 262 263 264 264 266 269 271 274 276 277 278 280 284 287 291 303 306 302 308 296 236 211 185 116 349 264 260 275 263 268 270 267 269 270 270 270 271 274 274 277 281 278 281 290 295 294 292 292 285 280 290 297 291 282 280 285 294 292 292 294 295 296 293 290 294 298 301 292 282 286 291 300 313 334 348 4 140 192 191 177 168 150 183 226 239
263 263 262 262 262 264 267 267 268 270 273 274 275 277 279 283 286 294 308 306 289 315 222 186 166 174 286 310 282 272 274 269 276 279 277 280 282 282 280 282 284 282 285 282 274 283 297 296 294 294 290 290 293 299 299 286 276 278 286 291 288 289 290 290 293 291 294 300 299 300 331 280 280 290 303 324 359 8 85 147 147 143 145 153 167 239 249 251
258 258 259 259 260 263 265 264 262 262 265 266 267 270 273 278 284 291 289 259 266 303 226 210 215 259 283 274 256 260 267 272 275 276 278 279 281 285 289 294 294 292 294 288 284 294 303 298 295 292 290 296 301 300 296 287 280 285 291 290 287 288 288 289 291 290 295 295 269 250 278 275 281 289 302 0 8 92 143 129 104 66 55 230 250 257 265 275
250 251 253 254 256 257 257 255 252 252 255 257 258 264 270 276 282 280 249 238 260 273 256 248 255 266 263 252 252 255 261 268 268 270 277 279 284 290 294 297 296 297 299 295 295 301 302 299 295 294 296 299 297 294 293 289 287 290 290 289 290 290 292 292 290 289 291 281 264 272 274 257 273 305 125 345 135 143 139 117 23 346 298 251 252 256 278 293
245 247 248 248 248 246 245 244 241 243 249 254 262 270 275 279 276 247 215 253 276 273 269 261 248 244 246 251 254 249 251 258 259 268 282 290 295 296 297 299 298 299 299 296 298 299 298 297 294 295 296 294 292 290 287 284 283 284 282 285 290 295 302 300 289 280 264 266 274 286 272 235 238 223 124 126 131 147 160 169 330 329 286 246 253 261 279 283
246 245 243 242 240 237 236 236 240 247 253 260 270 276 279 280 261 231 234 274 288 272 239 193 178 205 238 259 262 251 252 262 268 277 287 292 293 292 294 297 296 296 295 294 297 296 293 291 290 290 289 287 286 281 279 279 277 277 276 275 276 302 317 287 253 228 242 265 280 284 270 234 242 245 227 233 265 254 235 245 288 295 263 240 254 264 272 272
252 246 239 238 238 236 239 242 247 252 257 261 266 271 272 269 246 235 244 251 242 226 210 224 271 284 284 282 279 276 273 274 275 277 281 284 284 284 285 288 289 288 286 290 293 293 293 291 288 286 286 284 279 272 275 281 282 283 277 266 246 214 309 252 245 262 256 264 280 279 271 255 262 265 260 267 276 264 254 257 265 256 235 240 260 271 276 274
250 238 231 234 238 239 242 245 247 250 254 258 261 265 262 252 245 249 249 246 251 263 269 273 281 283 283 282 281 282 281 280 279 278 280 282 280 280 280 281 283 283 284 286 286 284 285 287 285 285 284 283 279 276 280 286 287 286 279 266 245 232 231 237 238 238 267 282 286 279 256 255 272 268 254 279 286 266 251 240 233 230 241 257 266 271 272 267
236 228 229 235 238 240 243 242 244 246 247 253 257 257 252 247 252 257 259 265 269 271 274 277 281 281 282 284 284 286 282 276 278 281 283 282 280 281 281 280 280 279 277 274 276 278 275 276 281 282 279 281 283 282 283 285 280 274 267 250 244 252 249 242 241 247 271 297 277 258 252 262 270 272 275 285 284 268 255 247 248 252 257 260 262 261 257 257
229 231 237 240 241 240 240 241 244 244 246 249 250 250 250 252 259 261 264 270 269 268 274 277 279 281 284 288 288 287 277 270 277 281 280 279 280 281 282 283 282 277 271 264 265 271 270 272 279 280 277 279 281 281 281 278 269 259 253 249 260 269 256 243 247 252 254 272 263 255 265 273 279 286 286 286 274 254 252 253 249 244 240 236 236 245 251 257
235 240 244 243 244 240 237 241 244 246 249 248 245 250 257 262 265 265 265 267 266 267 270 271 274 277 278 282 283 282 278 276 279 276 274 277 278 279 281 284 283 279 274 270 266 265 265 270 275 277 278 277 277 277 273 267 262 254 254 265 272 268 248 239 243 245 228 242 255 245 256 273 281 289 283 261 218 230 231 223 206 200 224 236 244 250 249 250
241 246 245 241 243 245 243 244 248 251 252 248 248 255 262 265 268 268 267 267 267 266 265 264 266 270 271 273 275 277 277 275 274 271 274 276 274 279 284 283 280 277 272 269 266 264 263 267 273 275 275 275 273 270 262 255 256 254 257 266 263 250 238 223 212 234 236 241 243 225 240 258 260 260 259 254 263 263 248 235 231 246 259 255 249 246 245 257
246 247 246 244 251 259 258 254 254 253 248 246 250 256 261 266 269 271 269 268 267 265 264 264 264 266 269 270 270 274 274 272 271 271 272 270 267 275 282 279 278 278 274 270 269 269 264 262 268 270 271 272 267 259 255 254 257 256 254 253 248 247 249 232 224 232 237 249 254 234 233 243 253 263 267 267 271 272 264 257 253 254 254 248 248 257 268 279
256 255 256 258 262 263 261 256 251 246 243 248 254 258 262 267 270 271 269 268 267 264 262 264 265 265 267 269 270 271 271 270 271 269 265 261 262 269 274 275 277 278 276 270 267 267 262 253 255 263 267 269 263 259 262 265 265 259 252 248 248 247 248 250 247 240 239 253 259 250 242 238 253 265 269 269 273 274 271 265 258 255 257 261 269 277 282 287
258 258 260 261 259 256 253 248 244 244 245 251 257 258 260 264 266 268 268 266 265 263 262 264 264 264 266 268 270 271 271 272 273 271 267 265 265 269 272 274 275 275 273 271 270 269 267 263 262 264 265 265 266 269 271 270 267 262 258 256 258 255 250 250 250 241 240 239 234 247 252 235 251 265 269 271 273 272 271 271 272 276 280 283 285 287 288 289
252 252 253 253 251 250 246 242 244 246 246 250 255 257 259 262 264 265 265 264 264 263 262 262 262 263 265 266 268 271 273 274 274 272 272 272 272 271 272 274 276 277 277 276 275 273 271 270 266 263 264 266 270 273 271 269 267 263 259 258 259 258 248 240 237 242 242 240 241 249 256 249 256 263 267 270 272 272 275 277 280 285 288 290 291 291 291 291
250 249 249 247 246 244 239 237 240 241 243 249 253 255 256 258 260 261 261 261 261 261 261 260 261 263 265 266 268 270 272 275 275 273 274 275 276 274 275 278 279 281 281 278 275 273 271 269 266 266 268 270 272 274 271 269 267 261 259 256 250 247 243 239 247 260 260 256 250 249 248 241 250 258 262 267 272 275 279 280 281 283 286 289 292 293 294 296
249 247 247 245 243 239 235 236 239 239 243 248 250 252 253 254 255 257 258 258 259 260 261 261 261 261 264 266 268 268 269 272 274 273 271 271 273 275 277 280 280 281 282 281 281 281 279 277 278 280 280 273 272 273 269 266 262 256 257 258 252 251 252 253 261 265 262 255 250 249 256 249 252 262 266 269 273 274 276 277 279 281 283 287 291 295 297 298
245 243 242 241 239 236 237 240 243 244 246 248 249 250 252 252 254 255 256 257 257 258 260 263 263 263 264 265 265 266 266 267 271 272 273 275 277 279 280 281 281 280 279 279 280 281 281 280 280 281 280 273 274 275 274 280 279 271 273 277 272 266 264 265 268 263 254 255 252 248 256 261 262 265 263 263 266 269 273 277 279 279 281 287 293 296 298 298
239 236 236 236 235 235 239 242 243 243 243 245 246 248 248 249 252 254 256 257 258 257 258 261 263 265 265 265 265 268 268 269 271 271 273 276 278 280 280 280 280 279 277 276 274 274 277 278 277 275 273 274 280 282 283 287 289 284 284 284 282 278 273 274 276 269 269 277 271 264 269 273 270 268 266 266 268 273 276 276 277 279 283 289 293 295 295 295
235 234 235 235 233 235 238 240 241 242 243 241 241 246 250 251 252 255 257 260 262 263 264 264 264 264 265 266 267 267 267 268 269 271 273 276 277 278 279 278 279 278 276 276 274 275 278 278 275 275 276 276 279 281 282 283 283 281 282 282 281 280 277 273 272 272 275 282 280 276 278 278 275 275 277 278 279 280 279 278 281 285 288 290 292 292 293 293
238 237 237 236 237 239 241 241 242 243 244 244 243 247 251 253 255 256 257 260 262 264 266 266 264 262 261 261 261 262 265 269 272 272 272 273 275 277 278 278 277 277 277 277 279 281 281 280 278 278 279 278 278 279 278 278 279 280 281 282 282 281 278 274 273 275 276 272 271 278 279 277 278 281 284 284 284 283 283 283 284 286 288 289 290 290 291 291
243 243 241 240 242 245 245 245 246 245 243 244 246 249 251 253 255 255 255 258 260 261 261 260 259 258 253 251 253 256 259 263 264 266 267 271 274 276 279 279 277 278 280 281 283 284 280 279 281 279 277 276 277 278 278 278 280 280 279 281 281 280 278 278 278 278 275 271 274 279 278 278 283 288 288 287 286 284 282 281 281 282 283 285 287 288 289 290
245 246 245 243 244 245 245 245 246 245 241 239 243 249 253 254 256 255 255 256 259 261 261 259 258 258 258 257 259 261 263 264 265 268 273 277 279 279 280 280 280 281 281 281 283 281 275 275 275 275 277 276 275 277 280 280 281 280 279 277 276 276 276 276 276 278 277 277 280 281 279 281 286 289 287 286 284 282 281 280 280 281 281 282 283 284 285 286
247 247 246 246 245 244 244 244 244 244 242 240 242 248 252 254 256 258 258 259 261 263 264 264 264 266 268 269 270 272 273 273 272 272 275 277 278 278 279 279 280 280 277 275 274 270 270 275 277 281 284 281 278 280 282 284 286 284 280 277 274 275 276 276 277 279 279 279 280 280 278 279 282 283 283 283 281 281 280 280 281 281 281 280 280 280 281 282
250 250 248 248 247 246 245 245 243 243 244 244 245 246 248 251 254 257 259 261 263 264 265 266 267 269 271 272 273 274 275 274 271 268 266 266 265 267 269 270 271 272 273 273 274 274 275 279 283 285 283 280 282 284 285 290 291 280 276 278 280 280 280 279 278 279 281 280 276 271 272 276 279 280 281 281 280 278 278 279 279 279 278 277 276 277 278 279
Height
3198 3199 3199 3199 3199 3199 3199 3199 3199 3199 3199 3199 3199 3199 3199 3199 3199 3199 3199 3199 3199 3199 3199 3198 3198 3198 3198 3198 3197 3197 3197 3197 3197 3196 3196 3195 3195 3195 3195 3194 3194 3194 3193 3193 3193 3192 3192 3191 3191 3191 3190 3190 3189 3189 3189 3188 3188 3187 3186 3184 3184 3184 3183 3183 3183 3182 3181 3180 3180 3179 3179 3178 3178 3177 3175 3174 3175 3175 3175 3175 3174 3173 3173 3172 3170 3169 3169 3168
3197 3197 3197 3198 3198 3198 3198 3198 3198 3198 3198 3198 3198 3198 3198 3198 3198 3198 3198 3198 3198 3198 3197 3197 3197 3197 3197 3196 3196 3196 3196 3196 3196 3195 3194 3194 3193 3193 3193 3193 3192 3192 3192 3191 3191 3191 3191 3190 3190 3189 3189 3188 3188 3188 3187 3187 3187 3185 3184 3182 3181 3182 3181 3181 3182 3181 3179 3178 3177 3177 3176 3176 3176 3174 3173 3172 3172 3172 3173 3173 3173 3171 3171 3170 3169 3167 3167 3166
3195 3196 3196 3196 3196 3196 3196 3197 3197 3197 3197 3197 3197 3197 3197 3197 3197 3197 3197 3197 3196 3196 3196 3196 3196 3195 3195 3195 3194 3194 3194 3194 3195 3194 3193 3192 3192 3192 3192 3191 3191 3190 3190 3190 3190 3189 3189 3189 3188 3188 3187 3187 3186 3186 3186 3186 3185 3183 3182 3179 3179 3181 3179 3179 3180 3179 3177 3176 3175 3174 3174 3174 3174 3172 3170 3170 3169 3170 3170 3172 3171 3169 3169 3168 3167 3165 3164 3164
3194 3194 3194 3194 3194 3195 3195 3195 3195 3195 3195 3195 3195 3195 3195 3195 3195 3195 3195 3195 3195 3195 3194 3194 3194 3194 3194 3193 3193 3193 3192 3193 3193 3193 3191 3191 3191 3190 3190 3190 3190 3189 3189 3188 3188 3188 3187 3187 3187 3186 3186 3185 3185 3184 3184 3184 3183 3180 3179 3178 3178 3178 3177 3177 3178 3176 3175 3174 3173 3173 3172 3171 3171 3170 3169 3168 3166 3166 3168 3169 3169 3167 3166 3165 3164 3164 3162 3162
3192 3192 3192 3192 3193 3193 3193 3193 3193 3193 3193 3193 3193 3193 3193 3193 3193 3193 3193 3193 3193 3193 3193 3193 3192 3192 3192 3192 3191 3191 3191 3191 3192 3191 3190 3190 3190 3189 3189 3189 3188 3188 3187 3187 3186 3186 3186 3185 3185 3184 3184 3183 3182 3182 3182 3182 3181 3178 3176 3176 3176 3176 3174 3174 3175 3173 3172 3172 3171 3171 3170 3168 3167 3167 3166 3165 3163 3164 3166 3167 3166 3165 3163 3162 3161 3161 3160 3159
3190 3190 3191 3191 3191 3191 3191 3191 3191 3191 3191 3191 3191 3191 3191 3191 3191 3191 3191 3191 3191 3191 3191 3191 3191 3190 3190 3190 3190 3189 3189 3190 3191 3189 3188 3188 3188 3188 3187 3187 3187 3186 3185 3185 3185 3184 3184 3183 3183 3182 3182 3181 3180 3180 3179 3179 3179 3176 3173 3174 3174 3173 3171 3171 3171 3170 3170 3169 3169 3169 3167 3166 3165 3164 3163 3160 3160 3162 3164 3165 3164 3162 3160 3159 3158 3158 3158 3157
3188 3188 3189 3189 3189 3189 3189 3189 3189 3189 3189 3189 3189 3189 3189 3189 3189 3189 3189 3189 3189 3189 3189 3189 3188 3188 3188 3188 3188 3187 3186 3189 3190 3187 3186 3186 3186 3186 3185 3185 3184 3184 3183 3183 3183 3182 3182 3181 3181 3180 3179 3179 3178 3177 3177 3177 3176 3173 3171 3171 3171 3170 3169 3169 3167 3166 3167 3166 3166 3166 3164 3164 3162 3161 3158 3154 3156 3160 3161 3161 3160 3158 3157 3156 3155 3155 3155 3154
3186 3186 3187 3187 3187 3187 3187 3187 3187 3187 3187 3187 3187 3187 3187 3187 3187 3187 3187 3186 3186 3186 3186 3186 3186 3186 3186 3185 3185 3183 3183 3187 3187 3185 3184 3184 3184 3184 3183 3183 3182 3181 3181 3181 3181 3180 3179 3179 3179 3178 3177 3177 3175 3175 3175 3174 3172 3170 3170 3169 3168 3167 3167 3167 3164 3163 3163 3163 3163 3161 3160 3161 3160 3157 3153 3150 3154 3158 3158 3157 3156 3154 3153 3153 3153 3152 3152 3151
3184 3184 3184 3184 3184 3185 3185 3185 3185 3185 3185 3185 3185 3185 3185 3185 3185 3184 3184 3184 3184 3184 3184 3184 3184 3184 3183 3183 3183 3180 3181 3185 3184 3183 3182 3182 3182 3182 3181 3180 3179 3179 3179 3178 3178 3177 3177 3177 3176 3176 3175 3174 3173 3172 3172 3171 3169 3167 3167 3166 3164 3164 3164 3163 3161 3160 3160 3160 3159 3156 3156 3158 3157 3154 3148 3148 3153 3155 3154 3153 3153 3151 3150 3150 3150 3149 3149 3148
3181 3182 3182 3182 3182 3182 3182 3182 3182 3183 3183 3183 3183 3183 3183 3183 3183 3182 3182 3182 3182 3182 3182 3181 3181 3181 3181 3181 3180 3177 3180 3182 3181 3180 3180 3180 3180 3179 3178 3178 3177 3177 3176 3175 3175 3175 3174 3174 3173 3173 3172 3171 3171 3170 3169 3168 3166 3165 3164 3162 3161 3160 3160 3159 3158 3158 3157 3156 3154 3151 3152 3153 3152 3150 3145 3147 3151 3150 3149 3149 3149 3148 3147 3147 3146 3146 3145 3144
3179 3179 3179 3179 3179 3179 3179 3179 3179 3180 3180 3180 3180 3180 3180 3180 3180 3180 3180 3179 3179 3179 3179 3179 3179 3179 3179 3179 3177 3175 3178 3179 3178 3178 3178 3178 3178 3177 3176 3175 3174 3174 3173 3173 3172 3172 3171 3171 3171 3171 3170 3169 3168 3168 3167 3165 3163 3162 3160 3159 3158 3158 3157 3156 3155 3155 3153 3151 3150 3147 3146 3148 3147 3145 3144 3147 3147 3145 3144 3144 3145 3144 3143 3143 3142 3142 3142 3141
3175 3176 3176 3176 3176 3176 3176 3176 3177 3177 3177 3177 3177 3177 3178 3178 3178 3177 3177 3177 3177 3177 3177 3177 3177 3177 3177 3176 3175 3175 3175 3174 3174 3175 3175 3175 3175 3174 3173 3172 3172 3171 3170 3170 3169 3169 3168 3168 3168 3168 3167 3166 3166 3166 3164 3162 3160 3159 3158 3155 3155 3154 3153 3153 3153 3152 3151 3147 3146 3143 3139 3140 3142 3141 3143 3145 3143 3141 3140 3139 3140 3140 3139 3139 3138 3138 3138 3138
3172 3173 3173 3173 3173 3173 3174 3173 3174 3174 3174 3174 3174 3174 3175 3175 3175 3174 3174 3174 3174 3174 3174 3174 3174 3174 3173 3173 3173 3173 3172 3171 3171 3171 3172 3172 3171 3171 3171 3169 3169 3168 3167 3167 3166 3166 3165 3165 3165 3164 3164 3164 3164 3164 3161 3158 3156 3156 3155 3152 3151 3151 3149 3150 3150 3149 3148 3143 3142 3140 3133 3132 3137 3139 3141 3140 3138 3137 3136 3135 3135 3135 3134 3134 3134 3134 3134 3135
3169 3170 3170 3170 3170 3170 3171 3171 3170 3171 3171 3171 3171 3171 3171 3172 3172 3171 3171 3171 3171 3171 3171 3171 3171 3170 3170 3170 3171 3170 3170 3169 3168 3168 3168 3168 3168 3168 3167 3166 3166 3165 3164 3164 3163 3163 3162 3161 3161 3161 3161 3162 3162 3161 3158 3154 3153 3155 3152 3149 3149 3147 3145 3148 3148 3145 3144 3139 3138 3137 3128 3126 3132 3136 3138 3136 3134 3133 3131 3131 3131 3129 3129 3129 3129 3129 3129 3131
3166 3167 3167 3167 3167 3168 3168 3168 3167 3168 3168 3168 3168 3168 3168 3168 3168 3168 3168 3168 3167 3167 3167 3167 3167 3167 3166 3168 3169 3167 3167 3166 3165 3165 3165 3165 3165 3164 3164 3163 3162 3162 3161 3161 3160 3160 3159 3158 3157 3158 3158 3159 3159 3158 3154 3151 3151 3153 3150 3146 3146 3143 3140 3143 3145 3144 3141 3135 3134 3132 3123 3121 3126 3131 3134 3133 3130 3128 3126 3126 3127 3126 3125 3124 3125 3125 3125 3126
3163 3164 3164 3164 3164 3165 3165 3165 3164 3164 3164 3164 3164 3164 3165 3164 3164 3164 3164 3164 3164 3163 3163 3163 3163 3163 3162 3164 3165 3164 3164 3163 3162 3162 3162 3162 3161 3161 3161 3160 3160 3159 3158 3158 3157 3157 3156 3154 3154 3155 3156 3157 3157 3154 3151 3149 3149 3150 3147 3143 3143 3141 3138 3137 3140 3141 3139 3132 3130 3129 3121 3117 3121 3125 3129 3129 3127 3124 3121 3121 3123 3123 3122 3121 3121 3121 3121 3121
3160 3160 3161 3161 3161 3161 3161 3161 3161 3161 3161 3161 3161 3160 3161 3161 3160 3160 3160 3160 3160 3160 3160 3159 3159 3159 3159 3160 3162 3161 3160 3160 3160 3159 3159 3159 3158 3158 3157 3157 3157 3156 3155 3155 3154 3153 3152 3151 3151 3151 3153 3154 3153 3152 3150 3148 3147 3146 3145 3141 3139 3139 3137 3134 3134 3137 3136 3130 3126 3124 3116 3112 3116 3120 3123 3124 3123 3120 3117 3117 3119 3119 3118 3118 3118 3118 3117 3116
3156 3157 3157 3157 3157 3158 3158 3158 3158 3158 3157 3157 3157 3157 3157 3157 3157 3156 3156 3156 3156 3156 3156 3156 3156 3156 3155 3157 3158 3157 3157 3157 3157 3157 3156 3156 3155 3155 3154 3153 3153 3153 3152 3151 3150 3150 3149 3148 3148 3148 3150 3150 3149 3149 3148 3145 3145 3144 3142 3139 3137 3135 3133 3132 3131 3132 3132 3127 3123 3119 3112 3109 3111 3113 3116 3118 3119 3116 3114 3114 3114 3114 3115 3114 3114 3114 3113 3111
3153 3154 3154 3154 3154 3154 3155 3155 3155 3155 3154 3154 3154 3153 3153 3153 3153 3152 3152 3152 3152 3153 3152 3152 3152 3152 3152 3154 3154 3154 3154 3154 3154 3154 3154 3153 3152 3151 3150 3150 3149 3149 3149 3148 3147 3147 3146 3144 3143 3144 3146 3146 3146 3146 3144 3142 3142 3141 3139 3137 3134 3131 3129 3129 3128 3128 3128 3121 3117 3116 3110 3107 3109 3108 3109 3112 3114 3112 3110 3111 3110 3109 3109 3109 3110 3109 3107 3106
3150 3151 3151 3151 3151 3152 3152 3152 3152 3152 3151 3151 3150 3150 3149 3149 3149 3148 3148 3148 3149 3149 3149 3149 3148 3148 3149 3150 3150 3150 3150 3150 3150 3151 3150 3149 3148 3147 3146 3145 3145 3145 3145 3144 3143 3143 3143 3139 3137 3140 3143 3144 3144 3143 3141 3140 3139 3137 3136 3134 3131 3128 3125 3126 3127 3126 3125 3116 3109 3110 3107 3104 3104 3104 3105 3107 3108 3108 3107 3107 3106 3105 3106 3106 3106 3104 3103 3102
3148 3148 3148 3148 3149 3149 3149 3149 3149 3149 3149 3148 3148 3147 3146 3146 3145 3144 3143 3144 3146 3145 3145 3145 3144 3143 3145 3146 3145 3146 3146 3146 3147 3147 3146 3145 3144 3143 3141 3140 3141 3140 3141 3141 3140 3139 3138 3134 3133 3138 3141 3141 3140 3139 3138 3137 3136 3134 3132 3130 3127 3125 3121 3121 3124 3123 3122 3113 3104 3105 3102 3099 3100 3100 3101 3103 3103 3103 3103 3103 3103 3103 3104 3103 3102 3100 3099 3099
3144 3145 3145 3146 3146 3146 3146 3146 3146 3146 3146 3145 3145 3144 3143 3142 3141 3140 3138 3139 3141 3143 3141 3141 3140 3139 3142 3142 3141 3142 3141 3141 3142 3142 3142 3141 3140 3139 3137 3136 3136 3136 3136 3137 3136 3135 3133 3130 3132 3137 3138 3137 3136 3135 3135 3134 3133 3131 3129 3127 3123 3123 3119 3116 3119 3120 3118 3111 3103 3102 3096 3092 3095 3096 3096 3098 3098 3100 3100 3100 3101 3100 3100 3099 3097 3096 3095 3095
3141 3141 3142 3142 3143 3143 3143 3143 3143 3143 3143 3142 3142 3141 3140 3139 3138 3137 3135 3133 3135 3139 3138 3137 3136 3136 3137 3137 3136 3137 3135 3136 3137 3137 3138 3137 3136 3136 3133 3132 3133 3132 3132 3133 3133 3132 3129 3128 3131 3134 3134 3133 3132 3132 3132 3131 3129 3127 3126 3125 3121 3121 3120 3114 3114 3115 3114 3109 3103 3099 3091 3087 3090 3089 3090 3092 3093 3097 3098 3097 3097 3095 3094 3093 3092 3092 3091 3090
3137 3138 3138 3139 3139 3140 3140 3140 3140 3140 3140 3139 3139 3138 3137 3136 3135 3134 3134 3130 3128 3133 3135 3132 3131 3131 3132 3131 3131 3131 3130 3130 3131 3131 3133 3133 3132 3132 3131 3130 3130 3128 3129 3130 3130 3128 3126 3127 3129 3130 3130 3129 3128 3128 3129 3127 3124 3123 3123 3123 3119 3119 3119 3114 3112 3111 3108 3107 3103 3098 3090 3086 3088 3087 3088 3090 3090 3094 3096 3095 3093 3090 3090 3089 3088 3087 3087 3086
3133 3134 3134 3135 3136 3137 3137 3137 3137 3137 3137 3136 3136 3135 3134 3134 3133 3132 3132 3128 3124 3127 3129 3127 3126 3125 3126 3126 3126 3126 3125 3126 3127 3127 3129 3129 3129 3129 3128 3128 3127 3125 3126 3127 3126 3123 3123 3125 3126 3126 3126 3126 3125 3124 3126 3125 3121 3119 3120 3121 3119 3117 3116 3114 3112 3108 3105 3103 3101 3100 3095 3086 3086 3089 3088 3089 3090 3091 3092 3091 3089 3087 3086 3085 3084 3084 3084 3084
3130 3130 3131 3132 3132 3133 3134 3134 3134 3134 3134 3134 3133 3133 3132 3132 3131 3130 3129 3126 3122 3122 3124 3123 3122 3122 3122 3123 3123 3123 3123 3123 3124 3125 3126 3126 3126 3126 3126 3125 3125 3124 3124 3124 3123 3121 3121 3123 3123 3123 3123 3123 3123 3122 3123 3123 3119 3117 3117 3119 3118 3115 3114 3112 3111 3108 3104 3101 3098 3102 3102 3088 3081 3085 3086 3087 3088 3087 3088 3087 3085 3084 3082 3082 3082 3082 3082 3082
3127 3127 3128 3128 3129 3130 3131 3131 3132 3131 3131 3131 3130 3130 3130 3129 3129 3128 3128 3125 3120 3119 3120 3120 3120 3120 3121 3121 3121 3122 3122 3122 3123 3123 3123 3124 3124 3124 3123 3123 3123 3122 3122 3122 3121 3119 3120 3121 3121 3121 3121 3120 3120 3120 3121 3121 3118 3114 3114 3116 3115 3114 3113 3110 3109 3108 3103 3100 3096 3097 3102 3093 3080 3079 3082 3084 3086 3085 3085 3084 3081 3081 3081 3081 3081 3081 3081 3080
3124 3124 3124 3125 3126 3126 3127 3128 3129 3128 3128 3128 3128 3128 3127 3127 3127 3127 3129 3127 3119 3117 3119 3118 3118 3119 3119 3120 3120 3120 3121 3121 3122 3122 3122 3123 3122 3123 3122 3121 3121 3120 3120 3120 3118 3118 3119 3119 3119 3119 3119 3118 3117 3118 3118 3118 3116 3112 3112 3113 3112 3112 3111 3109 3108 3106 3103 3100 3095 3093 3099 3095 3080 3076 3080 3081 3083 3084 3084 3083 3080 3081 3081 3081 3080 3079 3078 3078
3121 3121 3121 3122 3122 3123 3124 3125 3126 3125 3125 3125 3125 3125 3125 3126 3126 3126 3129 3127 3117 3115 3118 3118 3118 3118 3118 3119 3119 3119 3119 3119 3120 3120 3121 3121 3121 3121 3120 3120 3119 3118 3118 3118 3116 3117 3117 3117 3116 3116 3116 3116 3115 3115 3115 3114 3113 3111 3110 3109 3109 3109 3108 3108 3106 3105 3104 3100 3093 3091 3096 3094 3080 3075 3080 3080 3080 3082 3083 3082 3081 3082 3082 3080 3079 3077 3076 3076
3117 3117 3118 3118 3119 3120 3120 3121 3122 3122 3122 3122 3122 3123 3124 3124 3124 3125 3126 3121 3115 3115 3116 3116 3117 3117 3116 3117 3117 3117 3117 3117 3118 3119 3119 3119 3119 3119 3119 3118 3117 3116 3116 3115 3114 3115 3114 3114 3113 3113 3114 3113 3113 3113 3112 3112 3111 3110 3109 3106 3106 3106 3104 3105 3104 3104 3105 3096 3088 3088 3092 3092 3083 3076 3077 3078 3078 3080 3081 3080 3079 3080 3080 3078 3076 3075 3074 3074
3113 3114 3114 3115 3115 3116 3117 3118 3119 3119 3119 3120 3120 3121 3121 3121 3121 3122 3120 3115 3114 3115 3114 3114 3114 3114 3114 3114 3115 3115 3115 3116 3116 3116 3116 3116 3116 3116 3116 3116 3116 3114 3114 3112 3112 3112 3111 3111 3110 3110 3111 3111 3110 3110 3109 3109 3108 3107 3106 3105 3105 3103 3102 3102 3101 3104 3103 3092 3086 3086 3088 3089 3083 3076 3076 3077 3078 3080 3080 3079 3076 3076 3077 3075 3073 3072 3072 3072
3109 3110 3111 3112 3112 3113 3114 3115 3116 3117 3117 3117 3118 3118 3119 3119 3117 3115 3113 3114 3115 3113 3112 3113 3113 3113 3114 3114 3114 3114 3114 3114 3114 3114 3114 3114 3113 3113 3114 3114 3114 3113 3111 3110 3109 3108 3106 3107 3108 3108 3108 3108 3108 3106 3105 3105 3105 3105 3104 3104 3105 3103 3103 3102 3100 3100 3097 3089 3085 3086 3087 3085 3076 3074 3076 3076 3079 3081 3079 3077 3075 3074 3074 3071 3069 3069 3070 3070
3105 3106 3107 3108 3109 3110 3111 3112 3114 3114 3114 3115 3116 3116 3117 3116 3111 3108 3111 3114 3114 3112 3112 3112 3112 3112 3112 3112 3113 3113 3113 3113 3113 3113 3112 3112 3111 3110 3111 3111 3111 3111 3109 3108 3107 3105 3102 3101 3102 3104 3104 3105 3105 3104 3104 3103 3103 3103 3102 3102 3102 3102 3104 3103 3098 3096 3091 3086 3084 3085 3086 3080 3070 3070 3073 3073 3076 3076 3074 3074 3073 3071 3071 3068 3066 3067 3067 3067
3101 3102 3103 3105 3106 3108 3108 3110 3110 3111 3112 3112 3113 3113 3113 3110 3106 3105 3108 3111 3111 3110 3111 3110 3110 3110 3109 3109 3110 3111 3111 3111 3110 3110 3109 3109 3108 3107 3108 3108 3108 3109 3108 3106 3104 3103 3101 3097 3097 3100 3101 3101 3101 3102 3102 3101 3101 3099 3098 3099 3097 3097 3099 3097 3094 3091 3086 3083 3083 3084 3083 3075 3068 3067 3068 3070 3074 3072 3070 3071 3069 3068 3067 3066 3065 3064 3064 3063
3097 3098 3099 3101 3102 3103 3105 3106 3106 3108 3109 3109 3110 3110 3107 3103 3102 3103 3105 3106 3107 3107 3107 3107 3107 3106 3105 3106 3106 3107 3108 3107 3107 3107 3106 3106 3105 3104 3104 3105 3105 3106 3106 3104 3102 3101 3099 3094 3093 3096 3098 3098 3099 3099 3099 3099 3098 3095 3095 3095 3093 3093 3093 3091 3088 3087 3085 3084 3081 3080 3075 3068 3065 3065 3064 3067 3068 3066 3066 3066 3065 3064 3063 3063 3063 3061 3061 3060
3094 3095 3096 3097 3098 3099 3100 3101 3102 3104 3105 3105 3106 3103 3098 3098 3100 3101 3100 3101 3103 3103 3104 3104 3104 3103 3102 3102 3102 3102 3104 3104 3104 3104 3103 3102 3102 3100 3100 3100 3101 3102 3102 3101 3100 3099 3095 3090 3090 3092 3092 3094 3095 3095 3096 3096 3094 3092 3091 3090 3089 3089 3089 3088 3086 3085 3086 3084 3078 3074 3069 3063 3063 3062 3060 3061 3060 3058 3060 3060 3060 3060 3059 3060 3060 3059 3059 3058
3090 3090 3091 3093 3094 3094 3095 3096 3098 3099 3100 3101 3099 3094 3092 3094 3096 3096 3097 3098 3099 3100 3101 3101 3101 3100 3100 3099 3098 3099 3100 3100 3101 3101 3100 3100 3098 3096 3096 3097 3097 3097 3098 3098 3097 3096 3093 3088 3087 3088 3088 3090 3092 3091 3091 3091 3090 3089 3088 3087 3087 3087 3086 3086 3085 3084 3084 3081 3073 3069 3066 3063 3064 3061 3057 3057 3057 3056 3057 3056 3057 3057 3057 3057 3057 3056 3056 3054
3085 3086 3086 3088 3089 3090 3091 3093 3094 3095 3096 3096 3092 3089 3089 3090 3090 3092 3094 3095 3096 3097 3098 3098 3097 3097 3097 3096 3095 3096 3097 3097 3097 3098 3097 3097 3095 3092 3093 3094 3094 3094 3095 3095 3093 3093 3092 3087 3084 3085 3084 3085 3087 3087 3085 3085 3086 3086 3085 3085 3086 3084 3082 3083 3083 3081 3080 3075 3067 3064 3062 3061 3062 3060 3056 3056 3056 3056 3055 3055 3055 3055 3055 3054 3053 3053 3052 3051
3081 3081 3081 3083 3085 3086 3088 3089 3089 3091 3091 3089 3086 3085 3085 3085 3086 3089 3090 3091 3092 3093 3093 3093 3093 3093 3092 3092 3092 3093 3093 3093 3094 3095 3094 3093 3091 3090 3090 3091 3091 3091 3092 3093 3091 3090 3090 3086 3081 3082 3081 3081 3082 3082 3080 3080 3083 3083 3082 3082 3081 3080 3079 3079 3077 3075 3073 3068 3062 3060 3057 3054 3054 3055 3055 3053 3052 3052 3052 3052 3052 3051 3051 3050 3049 3049 3048 3048
3076 3076 3076 3079 3081 3081 3083 3084 3085 3085 3083 3081 3081 3081 3081 3082 3083 3084 3085 3087 3088 3089 3089 3089 3090 3090 3089 3088 3089 3089 3090 3090 3090 3091 3090 3090 3088 3087 3088 3088 3088 3088 3088 3089 3088 3086 3086 3083 3079 3079 3079 3077 3076 3076 3076 3078 3079 3079 3078 3077 3077 3076 3076 3075 3071 3069 3068 3063 3059 3057 3051 3047 3049 3051 3050 3049 3048 3048 3048 3048 3047 3047 3047 3046 3046 3045 3044 3043
3070 3070 3071 3073 3075 3076 3078 3078 3078 3078 3077 3076 3077 3077 3078 3079 3079 3079 3081 3082 3083 3085 3085 3086 3086 3086 3086 3085 3086 3086 3086 3085 3086 3086 3085 3085 3086 3085 3085 3085 3085 3085 3085 3084 3084 3083 3082 3079 3076 3076 3075 3072 3071 3071 3073 3075 3075 3075 3073 3072 3072 3072 3073 3070 3064 3062 3062 3057 3054 3052 3045 3043 3047 3048 3045 3045 3044 3043 3044 3044 3042 3041 3041 3040 3040 3040 3039 3039
3065 3065 3066 3069 3069 3071 3073 3072 3072 3073 3072 3071 3072 3073 3075 3076 3076 3076 3076 3077 3079 3081 3082 3082 3082 3082 3082 3082 3082 3083 3083 3081 3081 3082 3081 3080 3082 3082 3081 3082 3082 3082 3082 3080 3080 3079 3078 3075 3072 3070 3069 3068 3068 3069 3069 3069 3071 3071 3069 3068 3068 3067 3067 3063 3057 3055 3055 3051 3049 3049 3042 3039 3043 3044 3042 3041 3040 3040 3040 3040 3038 3036 3035 3035 3034 3034 3034 3034
3061 3061 3063 3064 3065 3067 3067 3067 3067 3068 3066 3067 3069 3070 3071 3072 3072 3072 3072 3073 3075 3076 3077 3078 3078 3078 3078 3078 3079 3079 3079 3078 3076 3077 3077 3077 3077 3077 3078 3078 3078 3078 3078 3076 3075 3074 3073 3070 3067 3065 3064 3063 3064 3065 3064 3064 3066 3065 3063 3064 3063 3061 3059 3056 3052 3053 3051 3048 3048 3046 3038 3035 3038 3040 3039 3039 3039 3037 3036 3036 3035 3033 3032 3031 3030 3029 3029 3028
3057 3058 3059 3060 3061 3062 3061 3061 3062 3062 3062 3064 3066 3066 3067 3067 3067 3068 3068 3070 3071 3072 3072 3073 3074 3074 3074 3074 3075 3075 3075 3075 3073 3072 3073 3073 3073 3073 3074 3074 3075 3074 3074 3072 3071 3070 3069 3067 3065 3064 3062 3060 3059 3059 3058 3058 3060 3059 3059 3060 3058 3056 3055 3052 3051 3051 3047 3043 3044 3041 3034 3033 3036 3036 3037 3037 3036 3035 3033 3032 3031 3030 3029 3027 3026 3025 3024 3023
3053 3053 3054 3055 3056 3056 3056 3057 3058 3058 3060 3061 3062 3062 3063 3063 3063 3064 3065 3066 3068 3068 3068 3068 3069 3070 3070 3070 3070 3070 3071 3071 3070 3069 3068 3068 3069 3069 3070 3070 3070 3070 3070 3069 3068 3067 3066 3065 3064 3063 3061 3058 3057 3056 3056 3055 3056 3055 3055 3056 3055 3054 3053 3050 3049 3047 3041 3038 3039 3036 3031 3032 3034 3034 3034 3034 3033 3031 3029 3028 3027 3026 3025 3024 3022 3021 3020 3018
3048 3049 3050 3051 3052 3052 3052 3053 3054 3055 3056 3057 3058 3058 3059 3058 3059 3060 3061 3062 3063 3064 3064 3065 3065 3065 3065 3065 3065 3065 3066 3067 3066 3065 3064 3064 3064 3065 3065 3065 3065 3065 3065 3064 3064 3064 3062 3060 3061 3060 3058 3056 3055 3054 3055 3054 3052 3052 3052 3052 3052 3052 3051 3050 3046 3042 3038 3036 3035 3033 3031 3030 3031 3031 3030 3030 3030 3028 3026 3025 3023 3022 3021 3020 3019 3017 3015 3014
3044 3045 3046 3046 3047 3047 3048 3049 3050 3050 3052 3053 3054 3054 3054 3055 3056 3056 3057 3057 3057 3059 3059 3060 3060 3061 3060 3060 3061 3061 3061 3062 3062 3061 3061 3060 3060 3060 3060 3060 3060 3060 3060 3060 3060 3060 3058 3055 3055 3055 3053 3053 3052 3051 3051 3050 3048 3048 3048 3046 3046 3046 3046 3045 3039 3036 3038 3036 3029 3029 3030 3027 3026 3027 3026 3026 3026 3024 3022 3021 3019 3018 3016 3015 3014 3013 3011 3009
3040 3041 3042 3043 3043 3043 3043 3044 3046 3046 3047 3049 3049 3050 3050 3051 3052 3053 3053 3053 3053 3054 3055 3055 3055 3056 3056 3057 3057 3057 3058 3058 3057 3057 3057 3056 3056 3056 3056 3056 3056 3056 3056 3056 3055 3055 3054 3051 3050 3050 3048 3048 3048 3046 3047 3046 3044 3044 3043 3041 3041 3040 3039 3036 3032 3033 3036 3032 3024 3025 3026 3021 3020 3022 3022 3021 3020 3019 3017 3017 3015 3014 3011 3009 3008 3007 3006 3005
3037 3037 3039 3039 3039 3040 3040 3041 3042 3043 3044 3045 3045 3046 3046 3047 3048 3049 3049 3049 3049 3050 3051 3051 3051 3052 3052 3053 3053 3053 3054 3054 3053 3053 3053 3053 3053 3052 3052 3052 3052 3051 3051 3051 3050 3051 3049 3046 3046 3045 3042 3042 3043 3042 3041 3041 3039 3039 3038 3037 3036 3034 3031 3030 3028 3029 3030 3025 3022 3022 3019 3014 3015 3016 3015 3014 3013 3012 3011 3010 3010 3009 3007 3005 3004 3002 3001 3000
3033 3033 3035 3036 3036 3037 3037 3038 3039 3040 3040 3041 3041 3041 3042 3043 3044 3044 3045 3045 3045 3046 3047 3047 3047 3047 3048 3048 3048 3048 3049 3050 3049 3049 3048 3048 3048 3048 3047 3047 3047 3047 3047 3046 3046 3047 3045 3042 3042 3041 3038 3037 3038 3038 3037 3037 3035 3033 3032 3032 3031 3027 3026 3025 3024 3024 3023 3019 3017 3017 3012 3008 3009 3009 3008 3007 3006 3005 3005 3004 3003 3002 3002 3001 2999 2998 2996 2994
3028 3029 3031 3031 3032 3033 3033 3034 3035 3036 3036 3037 3037 3037 3038 3038 3039 3040 3040 3040 3041 3042 3042 3042 3042 3042 3042 3043 3043 3043 3043 3044 3044 3044 3044 3044 3044 3044 3044 3043 3043 3042 3042 3043 3042 3043 3042 3039 3038 3039 3035 3031 3033 3034 3032 3031 3030 3027 3025 3024 3023 3021 3020 3019 3019 3019 3018 3015 3012 3011 3007 3003 3003 3003 3002 3001 3001 3000 2999 2998 2998 2997 2996 2995 2994 2993 2992 2990
3024 3025 3026 3027 3027 3028 3029 3030 3031 3031 3031 3032 3033 3034 3034 3034 3035 3035 3036 3036 3036 3037 3037 3037 3037 3037 3037 3038 3038 3038 3038 3039 3039 3040 3040 3040 3040 3040 3040 3040 3040 3039 3037 3038 3037 3037 3038 3036 3035 3036 3030 3025 3029 3030 3027 3028 3025 3017 3015 3017 3016 3015 3014 3012 3012 3012 3012 3010 3006 3004 3001 2999 2999 2999 2998 2997 2996 2995 2995 2994 2994 2993 2991 2990 2989 2988 2987 2986